Terug naar catalogus

STARLINK-35959

ActiefCommunicatieVLEO
NORAD 66827·PAYLOAD·🇺🇸 United States

Gelanceerd Dec 2, 2025 vanaf Vandenberg Space Force Base

Loading…

Volgende Passages (komende 24 uur)

TLE

VersSource: CelesTrak SupGP

Epoch: Sep 14, 2026, 20:55 UTC

1 66827C 25280G   26257.87201389  .00025345  00000+0  21238-2 0  2579
2 66827  70.0007 217.4967 0003049 259.3667  64.1087 14.98321601    17

Volg STARLINK-35959 in realtime met AllMySat

Download on the App Store